This demonstration page uses our WeatherBlox Daily Observations layout. Learn more.

Left ArrowRight Arrow

34.16533, -84.80231

Hourly Observations for August 21, 2018

Temp ( °F °C ) Dew Point ( °F °C ) Humidity (%) Winds ( mph kmh ) Pressure ( in mb ) Visibility ( mi km ) Precip ( " mm )
12:02 am 00:02 Partly Cloudy 72 22.2 72 22.2 100 100 Calm 30.03 1017 9 14 0.00 0.00
12:46 am 00:46 Mostly Cloudy 73 22.8 73 22.8 100 100 S 5 7 30.03 1017 10 16 0.00 0.00
12:53 am 00:53 Mostly Cloudy 73 22.8 73 22.8 100 100 S 5 7 30.03 1017 10 16 0.00 0.00
1:13 am 01:13 Partly Cloudy 73 22.8 73 22.8 100 100 S 5 7 30.03 1017 10 16 0.00 0.00
2:22 am 02:22 Mostly Cloudy 72 22.2 72 22.2 100 100 Calm 30.03 1017 10 16 0.00 0.00
2:53 am 02:53 Cloudy 72 22.2 72 22.2 100 100 SSE 3 6 29.99 1016 10 16 0.00 0.00
3:53 am 03:53 Cloudy 73 22.8 72 22.2 96 96 Calm 29.98 1015 10 16 0.00 0.00
4:53 am 04:53 Cloudy 72 22.2 72 22.2 100 100 SSE 3 6 29.97 1015 10 16 0.00 0.00
5:53 am 05:53 Cloudy 73 22.8 72 22.2 96 96 S 3 6 29.98 1015 10 16 0.00 0.00
6:53 am 06:53 Cloudy 73 22.8 72 22.2 96 96 Calm 30.00 1016 10 16 0.00 0.00
7:53 am 07:53 Partly Cloudy 73 22.8 72 22.2 96 96 Calm 30.01 1016 10 16 0.00 0.00
8:02 am 08:02 Mostly Cloudy 74 23.3 72 22.2 94 94 SSW 3 6 30.03 1017 10 16 0.00 0.00
8:39 am 08:39 Cloudy 75 23.9 72 22.2 90 90 SSW 6 9 30.03 1017 10 16 0.00 0.00
8:53 am 08:53 Mostly Cloudy 75 23.9 72 22.2 90 90 S 3 6 30.02 1017 10 16 0.00 0.00
9:17 am 09:17 Mostly Cloudy 76 24.4 71 21.7 85 85 VRB 7 11 30.03 1017 10 16 0.00 0.00
9:53 am 09:53 Cloudy 77 25 71 21.7 82 82 VRB 5 7 30.01 1016 10 16 0.00 0.00
10:15 am 10:15 Cloudy 77 25 72 22.2 85 85 VRB 5 7 30.00 1016 10 16 0.00 0.00
10:53 am 10:53 Cloudy 80 26.7 73 22.8 79 79 VRB 5 7 30.01 1016 10 16 0.00 0.00
11:44 am 11:44 Cloudy 81 27.2 74 23.3 79 79 VRB 6 9 30.00 1016 10 16 0.00 0.00
11:53 am 11:53 Cloudy 80 26.7 73 22.8 79 79 VRB 5 7 30.00 1016 10 16 0.00 0.00
12:53 pm 12:53 Mostly Cloudy 82 27.8 74 23.3 77 77 Calm 29.99 1016 10 16 0.00 0.00
1:53 pm 13:53 Partly Cloudy 86 30 74 23.3 67 67 VRB 6 9 29.97 1015 10 16 0.00 0.03
2:53 pm 14:53 Mostly Sunny 85 29.4 73 22.8 68 68 SSW 8 13 29.94 1014 10 16 0.00 0.00
3:53 pm 15:53 Mostly Cloudy 83 28.3 76 24.4 79 79 Calm 29.93 1014 10 16 0.01 0.25
4:53 pm 16:53 Mostly Cloudy 83 28.3 73 22.8 72 72 Calm 29.92 1013 10 16 0.00 0.00
5:53 pm 17:53 Mostly Cloudy 84 28.9 71 21.7 65 65 VRB 3 6 29.92 1013 10 16 0.00 0.00
6:53 pm 18:53 Cloudy 83 28.3 71 21.7 67 67 Calm 29.93 1014 10 16 0.00 0.00
7:53 pm 19:53 Mostly Sunny 81 27.2 70 21.1 69 69 Calm 29.94 1014 10 16 0.00 0.00
8:53 pm 20:53 Mostly Clear 78 25.6 69 20.6 74 74 Calm 29.96 1015 10 16 0.00 0.00
9:53 pm 21:53 Mostly Clear 74 23.3 71 21.7 91 91 Calm 29.98 1015 10 16 0.00 0.00
10:53 pm 22:53 Clear 72 22.2 71 21.7 97 97 Calm 30.00 1016 10 16 0.00 0.00
11:53 pm 23:53 Mostly Cloudy 72 22.2 71 21.7 97 97 Calm 30.00 1016 10 16 0.00 0.00

Powered by AerisWeather